カタログに戻る

COSMOS 1867 COOLANT

運用中LEO
NORAD 39675·DEBRIS·🇷🇺 Russia

打ち上げ Jul 10, 1987 から Baikonur Cosmodrome

Loading…

次のパス (今後24時間)

TLE

最新Source: Space-Track

元期: Sep 14, 2026, 08:09 UTC

1 39675U 87060AN  26257.33964982  .00000189  00000-0  10225-3 0  9998
2 39675  65.0059 116.1744 0018435 279.0727  80.8273 14.34575983649507

AllMySatでCOSMOS 1867 COOLANTをリアルタイム追跡

Download on the App Store